NOAA 16 DEB

Satellite information

Favourite Embed

Satellite Type and Status

DEBRISIN ORBIT

Key statistics

Satellite NOAA 16 DEB at a glance.

Uptime

8994

Days in orbit

Revolutions

≈ 14.2

Per day

Orbit

SSO

Sun Synchronous Orbit

Inclination

98.8

Latest

Satellite identification and parameters

Extended collection of information and parameters for NOAA 16 DEB.

Object identification

Identified? True

Debris? True

Object name: NOAA 16 DEB

International designator: 2000-055FN

Object number (NORAD): 41262

Object ID (CCSDS): 41262

Country: UNITED STATES OF AMERICA (US)

Current information (Y/N): Y

RCS size: SMALL

Orbital parameters

Period: 101.459 minutes

Inclination: 98.7988 deg

SMA: 7205.907 km

Apoapsis: 863.4 km

Periapsis: 792.144 km

RAAN: 151.8342 deg

Eccentricy: 0.0049443

Argument of periapsis: 51.5155 deg

Mean anomaly: 309.0441 deg

Mean motion: 14.19285547 rev/day

Mean motion (dot): 0.0000797 rev/day2

B* drag term: 0.0037695 1/REarth

Two-line elements (TLE)

Creation date: May 6, 2025, 3:54 a.m.

Reference frame: TEME

Reference center: EARTH

Epoch: May 5, 2025, 7:48 a.m. UTC

TLE line 0: 0 NOAA 16 DEB

TLE line 1: 1 41262U 00055FN 25125.32523510 .00007970 00000-0 37695-2 0 9996

TLE line 2: 2 41262 98.7988 151.8342 0049443 51.5155 309.0441 14.19285547481646

Live tracking on map

Real-time ground track for satellite NOAA 16 DEB.

In-orbit conjunctions

A list of the most updated potential collisions computed for object NOAA 16 DEB.

Target Orbit TCA Probability of collision Miss distance Type
METEOR 1-26 LEO 2025-01-09 22:26:58 0.0003249808 73.0 (m) PAYLOAD
METEOR 1-27 LEO 2024-08-15 05:45:14 0.001116888 259.0 (m) PAYLOAD
FENGYUN 1C DEB SSO 2024-07-12 06:08:45 0.0001577646 283.0 (m) DEBRIS

Associated space launch

The NOAA K, L and M POES satellites begin the fifth generation of improved environmental monitoring in support of NOAA missions. The instrument payload has significant improvements and additions/deletions. The instrument changes have effected the spacecraft subsystems and data formats.

NOAA 16 DEB was lifted into orbit during the mission ‘Titan II SLV | NOAA 16’, on board a Titan II SLV space rocket.

The launch took place on Sept. 21, 2000, 10:22 a.m. from Space Launch Complex 4W.

For more information about the launch, click the button.

Launch to space Titan II SLV | NOAA 16
Titan II SLV | NOAA 16

Agency: N/A

Status: Launch Successful

Launch date: Sept. 21, 2000, 10:22 a.m. UTC

Rocket: Titan II SLV

Launch pad: Space Launch Complex 4W

Location: Vandenberg SFB, CA, USA

...

Latest news about this satellite

There are no fresh news available about this satellite. Check back as we update our databases every day.


Newsletter sign-up

Weekly statistics, charts and insights to help you stay on top of the space industry.